This demonstration page uses our WeatherBlox Daily Observations layout. Learn more.

38.88101, -77.10428

Hourly Observations for June 27, 2017

Temp ( °F °C ) Dew Point ( °F °C ) Humidity (%) Winds ( mph kmh ) Pressure ( in mb ) Visibility ( mi km ) Precip ( " mm )
12:52 am 00:52 Mostly Cloudy 75 23.9 53 11.7 46 46 NW 10 17 30.01 1016 10 16.0934 0 0
1:52 am 01:52 Mostly Clear 72 22.2 51 10.6 48 48 NNW 8 13 29.99 1016 10 16.0934 0 0
2:52 am 02:52 Mostly Clear 71 21.7 51 10.6 49 49 N 7 11 29.99 1016 10 16.0934 0 0
3:52 am 03:52 Partly Cloudy 70 21.1 50 10 49 49 N 3 6 30 1016 10 16.0934 0 0
4:52 am 04:52 Mostly Cloudy 68 20 52 11.1 57 57 N 5 7 30.01 1016 10 16.0934 0 0
5:52 am 05:52 Mostly Cloudy 70 21.1 51 10.6 51 51 NW 9 15 30.03 1017 10 16.0934 0 0
6:52 am 06:52 Cloudy with Light Rain 69 20.6 54 12.2 59 59 Calm 30.04 1017 10 16.0934 0 0.0254
7:52 am 07:52 Mostly Cloudy 72 22.2 54 12.2 53 53 NNW 5 7 30.04 1017 10 16.0934 0 0.0254
8:52 am 08:52 Partly Cloudy 75 23.9 51 10.6 43 43 NW 12 19 30.04 1017 10 16.0934 0 0
9:52 am 09:52 Mostly Sunny 76 24.4 51 10.6 42 42 N 7 11 30.03 1017 10 16.0934 0 0
10:52 am 10:52 Partly Cloudy 78 25.6 51 10.6 39 39 N 9 15 30.04 1017 10 16.0934 0 0
11:52 am 11:52 Partly Cloudy 79 26.1 51 10.6 38 38 W 9 15 30.02 1017 10 16.0934 0 0
12:52 pm 12:52 Mostly Cloudy 80 26.7 49 9.4 34 34 W 8 13 30.01 1016 10 16.0934 0 0
1:52 pm 13:52 Mostly Cloudy 78 25.6 47 8.3 33 33 W 12 19 30.01 1016 10 16.0934 0 0
2:52 pm 14:52 Mostly Cloudy 81 27.2 50 10 34 34 WSW 10 17 29.99 1016 10 16.0934 0 0.0254
3:52 pm 15:52 Mostly Cloudy with Light Rain 74 23.3 55 12.8 52 52 NNW 13 20 30 1016 10 16.0934 0.01 0.254
4:52 pm 16:52 Mostly Cloudy 78 25.6 52 11.1 40 40 E 6 9 29.99 1016 10 16.0934 0.06 1.524
5:52 pm 17:52 Mostly Cloudy 79 26.1 50 10 36 36 W 7 11 29.98 1015 10 16.0934 0 0
6:52 pm 18:52 Mostly Cloudy 80 26.7 45 7.2 29 29 WNW 12 19 29.98 1015 10 16.0934 0 0
7:52 pm 19:52 Mostly Cloudy 77 25 47 8.3 35 35 NW 13 20 30 1016 10 16.0934 0 0
8:52 pm 20:52 Mostly Cloudy 75 23.9 47 8.3 37 37 NNW 15 24 30.01 1016 10 16.0934 0 0
9:52 pm 21:52 Mostly Cloudy 73 22.8 48 8.9 41 41 NNW 15 24 30.04 1017 10 16.0934 0 0
10:52 pm 22:52 Mostly Cloudy 71 21.7 47 8.3 42 42 NNW 10 17 30.07 1018 10 16.0934 0 0
11:52 pm 23:52 Partly Cloudy 69 20.6 47 8.3 45 45 NNW 8 13 30.09 1019 10 16.0934 0 0

Powered by AerisWeather